Вернуться в каталог

PRSC-EO2

АктивенНаукаSSO
NORAD 67746·PAYLOAD·🇨🇳 China
Это название спутника еще не подтверждено официальными источниками.

Запущен Feb 12, 2026 с South China Sea Launch Area

Loading…

Ближайшие Пролёты (ближайшие 24 часа)

TLE

СвежийSource: Space-Track

Эпоха: Sep 13, 2026, 21:45 UTC

1 67746U 26027A   26256.90630636  .00005193  00000-0  24395-3 0  9995
2 67746  97.5177  24.6299 0008214 263.6561  96.3739 15.20028107 32439

Отслеживайте PRSC-EO2 в реальном времени с AllMySat

Download on the App Store